This demonstration page uses our WeatherBlox Daily Observations layout. Learn more.

Left ArrowRight Arrow

38.83388, -104.82136

Hourly Observations for March 5, 2018

Temp ( °F °C ) Dew Point ( °F °C ) Humidity (%) Winds ( mph kmh ) Pressure ( in mb ) Visibility ( mi km ) Precip ( " mm )
12:05 am 00:05 Clear 28 -2 -2 -19 26 26 NE 16 26 29.47 998 10 16 0.00 0.00
12:25 am 00:25 Clear 27 -3 -6 -21 24 24 SE 14 22 29.46 998 10 16 0.00 0.00
12:27 am 00:27 Clear 27 -3 -6 -21 24 24 SW 13 20 29.46 998 10 16 0.00 0.00
12:58 am 00:58 Clear 27 -2.6 -9 -22.8 20 20 W 10 17 29.51 999 10 16 0.00 0.00
1:26 am 01:26 Clear 27 -3 -15 -26 15 15 W 13 20 29.52 1000 10 16 0.00 0.00
1:36 am 01:36 Clear 27 -3 -17 -27 14 14 NW 12 19 29.94 1014 10 16 0.00 0.00
1:58 am 01:58 Clear 25 -3.8 -15 -26 16 16 N 10 17 29.56 1001 10 16 0.00 0.00
2:01 am 02:01 Clear 25 -4 -15 -26 16 16 NW 13 20 29.57 1001 10 16 0.00 0.00
2:58 am 02:58 Clear 24 -4.5 -12 -24.3 20 20 NNW 9 15 29.59 1002 10 16 0.00 0.00
3:58 am 03:58 Clear 23 -4.8 -11 -23.7 21 21 Calm 29.63 1003 10 16 0.00 0.00
4:58 am 04:58 Mostly Clear 22 -5.8 -8 -22.4 26 26 W 3 6 29.67 1005 10 16 0.00 0.00
5:58 am 05:58 Clear 23 -5.2 -11 -23.8 22 22 S 5 7 29.65 1004 10 16 0.00 0.00
6:21 am 06:21 Clear 23 -5 -15 -26 18 18 WNW 14 22 29.62 1003 10 16 0.00 0.00
6:43 am 06:43 Sunny 25 -4 -20 -29 12 12 W 14 22 29.64 1004 10 16 0.00 0.00
6:58 am 06:58 Sunny 24 -4.5 -10 -23.5 21 21 SSE 16 26 29.65 1004 10 16 0.00 0.00
6:59 am 06:59 Sunny 23 -5 -11 -24 21 21 S 13 20 29.66 1004 10 16 0.00 0.00
7:05 am 07:05 Sunny 23 -5 -11 -24 21 21 S 22 35 29.67 1005 10 16 0.00 0.00
7:58 am 07:58 Sunny 25 -3.7 -11 -23.7 20 20 S 14 22 29.73 1007 10 16 0.00 0.00
8:58 am 08:58 Sunny 29 -1.4 -13 -24.9 15 15 SE 8 13 29.71 1006 10 16 0.00 0.00
9:58 am 09:58 Sunny 33 0.3 -20 -28.7 9 9 W 6 9 29.73 1007 10 16 0.00 0.00
10:58 am 10:58 Sunny 33 0.8 -13 -25 13 13 NNE 8 13 29.74 1007 10 16 0.00 0.00
11:01 am 11:01 Sunny 34 1 -13 -25 12 12 N 16 26 29.74 1007 10 16 0.00 0.00
11:58 am 11:58 Sunny 34 1.3 -14 -25.4 12 12 N 16 26 29.73 1007 10 16 0.00 0.00
12:58 pm 12:58 Sunny 34 1 -16 -26.6 11 11 N 18 30 29.73 1007 10 16 0.00 0.00
12:59 pm 12:59 Sunny 34 1 -17 -27 10 10 NNW 21 33 29.72 1007 10 16 0.00 0.00
1:01 pm 13:01 Sunny 34 1 -15 -26 11 11 N 15 24 29.72 1007 10 16 0.00 0.00
1:58 pm 13:58 Sunny 36 2.4 -14 -25.8 10 10 N 16 26 29.71 1006 10 16 0.00 0.00
2:10 pm 14:10 Sunny 36 2 -13 -25 11 11 NNE 13 20 29.72 1007 10 16 0.00 0.00
2:33 pm 14:33 Sunny 36 2 -13 -25 11 11 NNW 16 26 29.72 1007 10 16 0.00 0.00
2:58 pm 14:58 Sunny 36 2.2 -11 -24.1 12 12 N 15 24 29.73 1007 10 16 0.00 0.00
3:58 pm 15:58 Sunny 33 0.8 -12 -24.2 13 13 N 7 11 29.76 1008 10 16 0.00 0.00
4:58 pm 16:58 Sunny 33 0.5 -14 -25.4 12 12 NNW 13 20 29.76 1008 10 16 0.00 0.00
5:58 pm 17:58 Clear 32 -0.2 -13 -25.2 13 13 N 7 11 29.80 1009 10 16 0.00 0.00
6:58 pm 18:58 Clear 29 -1.7 -11 -23.8 17 17 N 6 9 29.82 1010 10 16 0.00 0.00
7:58 pm 19:58 Clear 28 -2.3 -9 -22.9 19 19 NNW 7 11 29.85 1011 10 16 0.00 0.00
8:58 pm 20:58 Clear 27 -2.6 -7 -21.5 22 22 Calm 29.83 1010 10 16 0.00 0.00
9:58 pm 21:58 Clear 26 -3.2 -5 -20.8 24 24 S 3 6 29.80 1009 10 16 0.00 0.00
10:58 pm 22:58 Clear 26 -3.1 -5 -20.5 25 25 S 3 6 29.80 1009 10 16 0.00 0.00
11:58 pm 23:58 Clear 24 -4.2 -4 -19.8 29 29 Calm 29.80 1009 10 16 0.00 0.00

Powered by AerisWeather